Location: Unspecified
(0.0000°N, 0.0000°E)
Time: 15:44:47
(UTC+00:00)

Altair - Pass Details

Date: 02 October 2023
Orbit: 1501 x 1682 km, 47.2° (Epoch: 06 December)

Event Time Altitude Azimuth Distance (km) Brightness Sun altitude
Rises 12:37:47 0° 282° (WNW) 4,889 10.3 77.4°
Reaches altitude 10° 12:42:34 10° 263° (W) 3,876 10.0 76.2°
Maximum altitude 12:48:19 17° 227° (SW) 3,317 9.7 74.9°
Drops below altitude 10° 12:54:00 10° 190° (S) 3,795 9.8 73.5°
Sets 12:58:41 0° 170° (S) 4,744 10.1 72.3°
